Location: Rounton
(54.4000°N, 1.3500°W)
Time: 18:37:22
(UTC+00:00)

Vanguard 2 - Pass Details

Date: 02 December 2021
Orbit: 553 x 2936 km, 32.9° (Epoch: 21 January)

Event Time Altitude Azimuth Distance (km) Brightness Sun altitude
Rises 17:39:16 0° 242° (WSW) 3,963 12.8 -15.6°
Reaches altitude 10° 17:43:22 10° 218° (SW) 3,432 11.6 -16.1°
Maximum altitude 17:47:39 14° 189° (S) 3,526 11.2 -16.7°
Drops below altitude 10° 17:52:52 10° 162° (SSE) 4,367 11.3 -17.5°
Sets 17:59:34 0° 142° (SE) 5,919 11.8 -18.4°
